Hourly Data Report for October 12, 2014

All times are specified in Local Standard Time (LST). Add 1 hour to adjust for Daylight Saving Time where and when it is observed.

BAKER LAKE A
NUNAVUT

64°17'56.000" N
96°04'40.000" W
18.60 m
2300503
71926
YBK

Download Data

Hourly Data (October 2014)
Hourly Data Report for October 12, 2014
Temp Definition
°C
Dew Point Temp Definition
°C
Rel Hum Definition
%
Wind Dir Definition
10's deg

Wind Spd Definition
km/h
Visibility Definition
km
Stn Press Definition
kPa
Hmdx Definition


Wind Chill Definition


Weather Definition


TIME
00:00 Legend Double Dagger -7.3 -9.1 87 36 10 24.1 99.90   -12 Mainly Clear
01:00 Legend Double Dagger -7.6 -9.3 88 1 11 24.1 99.91   -13 LegendNANA
02:00 Legend Double Dagger -8.3 -10.0 88 34 10 24.1 99.91   -13 LegendNANA
03:00 Legend Double Dagger -6.4 -8.5 85 1 12 24.1 99.90   -12 Mainly Clear
04:00 Legend Double Dagger -5.5 -7.6 85 2 11 24.1 99.90   -10 LegendNANA
05:00 Legend Double Dagger -5.0 -6.7 88 2 17 24.1 99.88   -11 LegendNANA
06:00 Legend Double Dagger -4.2 -5.6 90 4 14 24.1 99.92   -9 Cloudy
07:00 Legend Double Dagger -4.0 -5.1 92 4 13 24.1 99.95   -9 LegendNANA
08:00 Legend Double Dagger -4.0 -5.6 89 8 17 32.2 100.00   -10 LegendNANA
09:00 Legend Double Dagger -3.8 -4.8 93 2 11 12.9 100.03   -8 Snow Grains
10:00 Legend Double Dagger -3.0 -4.6 89 6 18 16.1 100.05   -9 Snow Grains
11:00 Legend Double Dagger -2.7 -5.4 82 7 14 16.1 100.08   -8 Snow Grains
12:00 Legend Double Dagger -2.7 -5.0 84 6 8 16.1 100.10   -6 Snow Grains
13:00 Legend Double Dagger -2.6 -5.6 80 6 10 32.2 100.14   -6 LegendNANA
14:00 Legend Double Dagger -2.7 -6.2 77 3 8 32.2 100.16   -6 LegendNANA
15:00 Legend Double Dagger -2.5 -6.2 76 9 11 32.2 100.16   -7 Cloudy
16:00 Legend Double Dagger -2.5 -6.3 75 4 5 32.2 100.20   -4 LegendNANA
17:00 Legend Double Dagger -2.5 -6.9 72 4 8 32.2 100.24   -6 LegendNANA
18:00 Legend Double Dagger -2.5 -6.7 73 4 5 24.1 100.28   -4 Cloudy
19:00 Legend Double Dagger -2.5 -6.7 73 1 6 24.1 100.32   -5 LegendNANA
20:00 Legend Double Dagger -2.5 -6.7 73 2 4 24.1 100.33   -4 LegendNANA
21:00 Legend Double Dagger -2.7 -6.7 74 2 11 24.1 100.33   -7 Cloudy
22:00 Legend Double Dagger -2.7 -7.1 72 7 5 24.1 100.35   -5 LegendNANA
23:00 Legend Double Dagger -3.0 -6.1 79 36 8 24.1 100.36   -6 LegendNANA

Notes on Data Quality.

Legend

  • E = Estimated
  • M = Missing
  • NA = Not Available
  • ‡ = Partner data that is not subject to review by the National Climate Archives
Date modified: